owner,sensor,date,latitude,longitude,air_pressure(mBar),qcFlag 
TABS,ioos:station:wmo:42047:1,2005-10-10T15:09:00Z,27.8966,-93.5973,1011.38,11111222 
TABS,ioos:station:wmo:42047:1,2005-10-10T15:39:00Z,27.8966,-93.5973,1011.57,11111222 
TABS,ioos:station:wmo:42047:1,2005-10-10T16:09:00Z,27.8966,-93.5973,1011.57,11111222 
TABS,ioos:station:wmo:42047:1,2005-10-10T16:39:00Z,27.8966,-93.5973,1011.44,11111222 
TABS,ioos:station:wmo:42047:1,2005-10-10T17:09:00Z,27.8966,-93.5973,1011.88,11111222 
TABS,ioos:station:wmo:42047:1,2005-10-10T17:39:00Z,27.8966,-93.5973,1011.25,11111222 
TABS,ioos:station:wmo:42047:1,2005-10-10T18:09:00Z,27.8966,-93.5973,1010.55,11111222 
TABS,ioos:station:wmo:42047:1,2005-10-10T18:39:00Z,27.8966,-93.5973,1010.49,11111222 
TABS,ioos:station:wmo:42047:1,2005-10-10T19:09:00Z,27.8966,-93.5973,1010.11,11111222 
TABS,ioos:station:wmo:42047:1,2005-10-10T19:39:00Z,27.8966,-93.5973,1009.66,11111222 
TABS,ioos:station:wmo:42047:1,2005-10-10T20:09:00Z,27.8966,-93.5973,1009.35,11111222 
TABS,ioos:station:wmo:42047:1,2005-10-10T20:39:00Z,27.8966,-93.5973,1009.41,11111222 
TABS,ioos:station:wmo:42047:1,2005-10-10T21:09:00Z,27.8966,-93.5973,1009.47,11111222 
TABS,ioos:station:wmo:42047:1,2005-10-10T21:39:00Z,27.8966,-93.5973,1009.54,11111222 
TABS,ioos:station:wmo:42047:1,2005-10-10T22:09:00Z,27.8966,-93.5973,1009.6,11111222 
TABS,ioos:station:wmo:42047:1,2005-10-10T22:39:00Z,27.8966,-93.5973,1010.42,11111222 
TABS,ioos:station:wmo:42047:1,2005-10-10T23:09:00Z,27.8966,-93.5973,1011.12,11111222 
TABS,ioos:station:wmo:42047:1,2005-10-10T23:39:00Z,27.8966,-93.5973,1011.63,11111222 
TABS,ioos:station:wmo:42047:1,2005-10-11T00:09:00Z,27.8966,-93.5973,1012.14,11111222 
TABS,ioos:station:wmo:42047:1,2005-10-11T00:39:00Z,27.8966,-93.5973,1012.58,11111222 
TABS,ioos:station:wmo:42047:1,2005-10-11T01:09:00Z,27.8966,-93.5973,1012.96,11111222 
TABS,ioos:station:wmo:42047:1,2005-10-11T01:39:00Z,27.8966,-93.5973,1012.96,11111222 
TABS,ioos:station:wmo:42047:1,2005-10-11T02:09:00Z,27.8966,-93.5973,1012.65,11111222 
TABS,ioos:station:wmo:42047:1,2005-10-11T02:39:00Z,27.8966,-93.5973,1011.44,11111222 
TABS,ioos:station:wmo:42047:1,2005-10-11T03:09:00Z,27.8966,-93.5973,1010.68,11111222 
TABS,ioos:station:wmo:42047:1,2005-10-11T03:39:00Z,27.8966,-93.5973,1011.0,11111222 
TABS,ioos:station:wmo:42047:1,2005-10-11T04:09:00Z,27.8966,-93.5973,1011.76,11111222 
TABS,ioos:station:wmo:42047:1,2005-10-11T04:39:00Z,27.8966,-93.5973,1012.14,11111222 
TABS,ioos:station:wmo:42047:1,2005-10-11T05:09:00Z,27.8966,-93.5973,1011.95,11111222 
TABS,ioos:station:wmo:42047:1,2005-10-11T05:39:00Z,27.8966,-93.5973,1011.82,11111222 
TABS,ioos:station:wmo:42047:1,2005-10-11T06:09:00Z,27.8966,-93.5973,1011.57,11111222 
TABS,ioos:station:wmo:42047:1,2005-10-11T06:39:00Z,27.8966,-93.5973,1011.69,11111222 
TABS,ioos:station:wmo:42047:1,2005-10-11T07:09:00Z,27.8966,-93.5973,1011.57,11111222 
TABS,ioos:station:wmo:42047:1,2005-10-11T07:39:00Z,27.8966,-93.5973,1011.82,11111222 
TABS,ioos:station:wmo:42047:1,2005-10-11T08:09:00Z,27.8966,-93.5973,1011.82,11111222 
TABS,ioos:station:wmo:42047:1,2005-10-11T08:39:00Z,27.8966,-93.5973,1011.82,11111222 
TABS,ioos:station:wmo:42047:1,2005-10-11T09:09:00Z,27.8966,-93.5973,1011.82,11111222 
TABS,ioos:station:wmo:42047:1,2005-10-11T09:39:00Z,27.8966,-93.5973,1011.95,11111222 
TABS,ioos:station:wmo:42047:1,2005-10-11T10:09:00Z,27.8966,-93.5973,1012.08,11111222 
TABS,ioos:station:wmo:42047:1,2005-10-11T10:39:00Z,27.8966,-93.5973,1012.27,11111222 
TABS,ioos:station:wmo:42047:1,2005-10-11T11:09:00Z,27.8966,-93.5973,1012.46,11111222 
TABS,ioos:station:wmo:42047:1,2005-10-11T11:39:00Z,27.8966,-93.5973,1012.71,11111222 
TABS,ioos:station:wmo:42047:1,2005-10-11T12:09:00Z,27.8966,-93.5973,1012.84,11111222 
TABS,ioos:station:wmo:42047:1,2005-10-11T12:39:00Z,27.8966,-93.5973,1013.03,11111222 
TABS,ioos:station:wmo:42047:1,2005-10-11T13:09:00Z,27.8966,-93.5973,1013.22,11111222 
TABS,ioos:station:wmo:42047:1,2005-10-11T13:39:00Z,27.8966,-93.5973,1013.54,11111222 
TABS,ioos:station:wmo:42047:1,2005-10-11T14:09:00Z,27.8966,-93.5973,1013.79,11111222 
TABS,ioos:station:wmo:42047:1,2005-10-11T14:39:00Z,27.8966,-93.5973,1013.92,11111222 
TABS,ioos:station:wmo:42047:1,2005-10-11T15:09:00Z,27.8966,-93.5973,1014.04,11111222 
TABS,ioos:station:wmo:42047:1,2005-10-11T15:39:00Z,27.8966,-93.5973,1013.92,11111222 
TABS,ioos:station:wmo:42047:1,2005-10-11T16:09:00Z,27.8966,-93.5973,1013.73,11111222 
TABS,ioos:station:wmo:42047:1,2005-10-11T16:39:00Z,27.8966,-93.5973,1013.85,11111222 
TABS,ioos:station:wmo:42047:1,2005-10-11T17:09:00Z,27.8966,-93.5973,1013.54,11111222 
TABS,ioos:station:wmo:42047:1,2005-10-11T17:39:00Z,27.8966,-93.5973,1013.34,11111222 
TABS,ioos:station:wmo:42047:1,2005-10-11T18:09:00Z,27.8966,-93.5973,1013.34,11111222 
TABS,ioos:station:wmo:42047:1,2005-10-11T18:39:00Z,27.8966,-93.5973,1012.96,11111222 
TABS,ioos:station:wmo:42047:1,2005-10-11T19:09:00Z,27.8966,-93.5973,1012.71,11111222 
TABS,ioos:station:wmo:42047:1,2005-10-11T19:39:00Z,27.8966,-93.5973,1012.58,11111222 
TABS,ioos:station:wmo:42047:1,2005-10-11T20:09:00Z,27.8966,-93.5973,1012.65,11111222 
TABS,ioos:station:wmo:42047:1,2005-10-11T20:39:00Z,27.8966,-93.5973,1012.52,11111222 
TABS,ioos:station:wmo:42047:1,2005-10-11T21:09:00Z,27.8966,-93.5973,1012.71,11111222 
TABS,ioos:station:wmo:42047:1,2005-10-11T21:39:00Z,27.8966,-93.5973,1012.77,11111222 
TABS,ioos:station:wmo:42047:1,2005-10-11T22:09:00Z,27.8966,-93.5973,1012.96,11111222 
TABS,ioos:station:wmo:42047:1,2005-10-11T22:39:00Z,27.8966,-93.5973,1013.03,11111222 
TABS,ioos:station:wmo:42047:1,2005-10-11T23:09:00Z,27.8966,-93.5973,1013.03,11111222 
TABS,ioos:station:wmo:42047:1,2005-10-11T23:39:00Z,27.8966,-93.5973,1013.09,11111222 
TABS,ioos:station:wmo:42047:1,2005-10-12T00:09:00Z,27.8966,-93.5973,1013.34,11111222 
TABS,ioos:station:wmo:42047:1,2005-10-12T00:39:00Z,27.8966,-93.5973,1013.66,11111222 
TABS,ioos:station:wmo:42047:1,2005-10-12T01:09:00Z,27.8966,-93.5973,1013.85,11111222 
TABS,ioos:station:wmo:42047:1,2005-10-12T01:39:00Z,27.8966,-93.5973,1013.73,11111222 
TABS,ioos:station:wmo:42047:1,2005-10-12T02:09:00Z,27.8966,-93.5973,1014.17,11111222 
TABS,ioos:station:wmo:42047:1,2005-10-12T02:39:00Z,27.8966,-93.5973,1014.61,11111222 
TABS,ioos:station:wmo:42047:1,2005-10-12T03:09:00Z,27.8966,-93.5973,1014.87,11111222 
TABS,ioos:station:wmo:42047:1,2005-10-12T03:39:00Z,27.8966,-93.5973,1015.06,11111222 
TABS,ioos:station:wmo:42047:1,2005-10-12T04:09:00Z,27.8966,-93.5973,1015.12,11111222 
TABS,ioos:station:wmo:42047:1,2005-10-12T04:39:00Z,27.8966,-93.5973,1014.55,11111222 
TABS,ioos:station:wmo:42047:1,2005-10-12T05:09:00Z,27.8966,-93.5973,1013.85,11111222 
TABS,ioos:station:wmo:42047:1,2005-10-12T05:39:00Z,27.8966,-93.5973,1013.22,11111222 
TABS,ioos:station:wmo:42047:1,2005-10-12T06:09:00Z,27.8966,-93.5973,1012.58,11111222 
TABS,ioos:station:wmo:42047:1,2005-10-12T06:39:00Z,27.8966,-93.5973,1011.69,11111222 
TABS,ioos:station:wmo:42047:1,2005-10-12T07:09:00Z,27.8966,-93.5973,1011.76,11111222 
TABS,ioos:station:wmo:42047:1,2005-10-12T07:39:00Z,27.8966,-93.5973,1012.08,11111222 
TABS,ioos:station:wmo:42047:1,2005-10-12T08:09:00Z,27.8966,-93.5973,1012.39,11111222 
TABS,ioos:station:wmo:42047:1,2005-10-12T08:39:00Z,27.8966,-93.5973,1012.65,11111222 
TABS,ioos:station:wmo:42047:1,2005-10-12T09:09:00Z,27.8966,-93.5973,1012.84,11111222 
TABS,ioos:station:wmo:42047:1,2005-10-12T09:39:00Z,27.8966,-93.5973,1013.09,11111222 
TABS,ioos:station:wmo:42047:1,2005-10-12T10:09:00Z,27.8966,-93.5973,1013.47,11111222 
TABS,ioos:station:wmo:42047:1,2005-10-12T10:39:00Z,27.8966,-93.5973,1013.98,11111222 
TABS,ioos:station:wmo:42047:1,2005-10-12T11:09:00Z,27.8966,-93.5973,1014.17,11111222 
TABS,ioos:station:wmo:42047:1,2005-10-12T11:39:00Z,27.8966,-93.5973,1014.23,11111222 
TABS,ioos:station:wmo:42047:1,2005-10-12T12:09:00Z,27.8966,-93.5973,1014.42,11111222 
TABS,ioos:station:wmo:42047:1,2005-10-12T12:39:00Z,27.8966,-93.5973,1014.55,11111222 
TABS,ioos:station:wmo:42047:1,2005-10-12T13:09:00Z,27.8966,-93.5973,1014.8,11111222 
TABS,ioos:station:wmo:42047:1,2005-10-12T13:39:00Z,27.8966,-93.5973,1015.19,11111222 
TABS,ioos:station:wmo:42047:1,2005-10-12T14:09:00Z,27.8966,-93.5973,1015.31,11111222 
TABS,ioos:station:wmo:42047:1,2005-10-12T14:39:00Z,27.8966,-93.5973,1015.63,11111222 
TABS,ioos:station:wmo:42047:1,2005-10-12T15:09:00Z,27.8966,-93.5973,1015.82,11111222 
TABS,ioos:station:wmo:42047:1,2005-10-12T15:39:00Z,27.8966,-93.5973,1015.88,11111222 
TABS,ioos:station:wmo:42047:1,2005-10-12T16:09:00Z,27.8966,-93.5973,1015.76,11111222 
TABS,ioos:station:wmo:42047:1,2005-10-12T16:39:00Z,27.8966,-93.5973,1015.69,11111222 
TABS,ioos:station:wmo:42047:1,2005-10-12T17:09:00Z,27.8966,-93.5973,1015.57,11111222 
TABS,ioos:station:wmo:42047:1,2005-10-12T17:39:00Z,27.8966,-93.5973,1015.5,11111222 
TABS,ioos:station:wmo:42047:1,2005-10-12T18:09:00Z,27.8966,-93.5973,1015.25,11111222 
TABS,ioos:station:wmo:42047:1,2005-10-12T18:39:00Z,27.8966,-93.5973,1015.0,11111222 
TABS,ioos:station:wmo:42047:1,2005-10-12T19:09:00Z,27.8966,-93.5973,1014.74,11111222 
TABS,ioos:station:wmo:42047:1,2005-10-12T19:39:00Z,27.8966,-93.5973,1014.42,11111222 
TABS,ioos:station:wmo:42047:1,2005-10-12T20:09:00Z,27.8966,-93.5973,1014.3,11111222 
TABS,ioos:station:wmo:42047:1,2005-10-12T20:39:00Z,27.8966,-93.5973,1014.3,11111222 
TABS,ioos:station:wmo:42047:1,2005-10-12T21:09:00Z,27.8966,-93.5973,1014.36,11111222 
TABS,ioos:station:wmo:42047:1,2005-10-12T21:39:00Z,27.8966,-93.5973,1014.42,11111222 
TABS,ioos:station:wmo:42047:1,2005-10-12T22:09:00Z,27.8966,-93.5973,1014.42,11111222 
TABS,ioos:station:wmo:42047:1,2005-10-12T22:39:00Z,27.8966,-93.5973,1014.49,11111222 
TABS,ioos:station:wmo:42047:1,2005-10-12T23:09:00Z,27.8966,-93.5973,1014.61,11111222 
TABS,ioos:station:wmo:42047:1,2005-10-12T23:39:00Z,27.8966,-93.5973,1014.8,11111222 
TABS,ioos:station:wmo:42047:1,2005-10-13T00:09:00Z,27.8966,-93.5973,1014.93,11111222 
TABS,ioos:station:wmo:42047:1,2005-10-13T00:39:00Z,27.8966,-93.5973,1015.12,11111222 
TABS,ioos:station:wmo:42047:1,2005-10-13T01:09:00Z,27.8966,-93.5973,1015.25,11111222 
TABS,ioos:station:wmo:42047:1,2005-10-13T01:39:00Z,27.8966,-93.5973,1015.44,11111222 
TABS,ioos:station:wmo:42047:1,2005-10-13T02:09:00Z,27.8966,-93.5973,1015.63,11111222 
TABS,ioos:station:wmo:42047:1,2005-10-13T02:39:00Z,27.8966,-93.5973,1015.82,11111222 
TABS,ioos:station:wmo:42047:1,2005-10-13T03:09:00Z,27.8966,-93.5973,1015.88,11111222 
TABS,ioos:station:wmo:42047:1,2005-10-13T03:39:00Z,27.8966,-93.5973,1015.95,11111222 
TABS,ioos:station:wmo:42047:1,2005-10-13T04:09:00Z,27.8966,-93.5973,1015.88,11111222 
TABS,ioos:station:wmo:42047:1,2005-10-13T04:39:00Z,27.8966,-93.5973,1015.69,11111222 
TABS,ioos:station:wmo:42047:1,2005-10-13T05:09:00Z,27.8966,-93.5973,1015.5,11111222 
TABS,ioos:station:wmo:42047:1,2005-10-13T05:39:00Z,27.8966,-93.5973,1015.44,11111222 
TABS,ioos:station:wmo:42047:1,2005-10-13T06:09:00Z,27.8966,-93.5973,1015.25,11111222 
TABS,ioos:station:wmo:42047:1,2005-10-13T06:39:00Z,27.8966,-93.5973,1015.25,11111222 
TABS,ioos:station:wmo:42047:1,2005-10-13T07:09:00Z,27.8966,-93.5973,1015.25,11111222 
TABS,ioos:station:wmo:42047:1,2005-10-13T07:39:00Z,27.8966,-93.5973,1015.31,11111222 
TABS,ioos:station:wmo:42047:1,2005-10-13T08:09:00Z,27.8966,-93.5973,1015.12,11111222 
TABS,ioos:station:wmo:42047:1,2005-10-13T08:39:00Z,27.8966,-93.5973,1015.0,11111222 
TABS,ioos:station:wmo:42047:1,2005-10-13T09:09:00Z,27.8966,-93.5973,1014.93,11111222 
TABS,ioos:station:wmo:42047:1,2005-10-13T09:39:00Z,27.8966,-93.5973,1015.0,11111222 
TABS,ioos:station:wmo:42047:1,2005-10-13T10:09:00Z,27.8966,-93.5973,1015.06,11111222 
TABS,ioos:station:wmo:42047:1,2005-10-13T10:39:00Z,27.8966,-93.5973,1015.12,11111222 
TABS,ioos:station:wmo:42047:1,2005-10-13T11:09:00Z,27.8966,-93.5973,1015.31,11111222 
TABS,ioos:station:wmo:42047:1,2005-10-13T11:39:00Z,27.8966,-93.5973,1015.44,11111222 
TABS,ioos:station:wmo:42047:1,2005-10-13T12:09:00Z,27.8966,-93.5973,1015.63,11111222 
TABS,ioos:station:wmo:42047:1,2005-10-13T12:39:00Z,27.8966,-93.5973,1015.69,11111222 
TABS,ioos:station:wmo:42047:1,2005-10-13T13:09:00Z,27.8966,-93.5973,1015.88,11111222 
TABS,ioos:station:wmo:42047:1,2005-10-13T13:39:00Z,27.8966,-93.5973,1016.14,11111222 
TABS,ioos:station:wmo:42047:1,2005-10-13T14:09:00Z,27.8966,-93.5973,1016.26,11111222 
TABS,ioos:station:wmo:42047:1,2005-10-13T14:39:00Z,27.8966,-93.5973,1016.46,11111222 
TABS,ioos:station:wmo:42047:1,2005-10-13T15:09:00Z,27.8966,-93.5973,1016.58,11111222 
TABS,ioos:station:wmo:42047:1,2005-10-13T15:39:00Z,27.8966,-93.5973,1016.71,11111222 
TABS,ioos:station:wmo:42047:1,2005-10-13T16:09:00Z,27.8966,-93.5973,1016.71,11111222 
TABS,ioos:station:wmo:42047:1,2005-10-13T16:39:00Z,27.8966,-93.5973,1016.84,11111222 
TABS,ioos:station:wmo:42047:1,2005-10-13T17:09:00Z,27.8966,-93.5973,1016.84,11111222 
TABS,ioos:station:wmo:42047:1,2005-10-13T17:39:00Z,27.8966,-93.5973,1016.58,11111222 
TABS,ioos:station:wmo:42047:1,2005-10-13T18:09:00Z,27.8966,-93.5973,1016.14,11111222 
TABS,ioos:station:wmo:42047:1,2005-10-13T18:39:00Z,27.8966,-93.5973,1015.76,11111222 
TABS,ioos:station:wmo:42047:1,2005-10-13T19:09:00Z,27.8966,-93.5973,1015.57,11111222 
TABS,ioos:station:wmo:42047:1,2005-10-13T19:39:00Z,27.8966,-93.5973,1015.38,11111222 
TABS,ioos:station:wmo:42047:1,2005-10-13T20:09:00Z,27.8966,-93.5973,1015.31,11111222 
TABS,ioos:station:wmo:42047:1,2005-10-13T20:39:00Z,27.8966,-93.5973,1015.31,11111222 
TABS,ioos:station:wmo:42047:1,2005-10-13T21:09:00Z,27.8966,-93.5973,1015.44,11111222 
TABS,ioos:station:wmo:42047:1,2005-10-13T21:39:00Z,27.8966,-93.5973,1015.38,11111222 
TABS,ioos:station:wmo:42047:1,2005-10-13T22:09:00Z,27.8966,-93.5973,1015.25,11111222 
TABS,ioos:station:wmo:42047:1,2005-10-13T22:39:00Z,27.8966,-93.5973,1015.19,11111222 
TABS,ioos:station:wmo:42047:1,2005-10-13T23:09:00Z,27.8966,-93.5973,1015.25,11111222 
TABS,ioos:station:wmo:42047:1,2005-10-13T23:39:00Z,27.8966,-93.5973,1015.31,11111222 
TABS,ioos:station:wmo:42047:1,2005-10-14T00:09:00Z,27.8966,-93.5973,1015.63,11111222 
TABS,ioos:station:wmo:42047:1,2005-10-14T00:39:00Z,27.8966,-93.5973,1015.82,11111222 
TABS,ioos:station:wmo:42047:1,2005-10-14T01:09:00Z,27.8966,-93.5973,1016.01,11111222 
TABS,ioos:station:wmo:42047:1,2005-10-14T01:39:00Z,27.8966,-93.5973,1016.46,11111222 
TABS,ioos:station:wmo:42047:1,2005-10-14T02:09:00Z,27.8966,-93.5973,1016.77,11111222 
TABS,ioos:station:wmo:42047:1,2005-10-14T02:39:00Z,27.8966,-93.5973,1017.09,11111222 
TABS,ioos:station:wmo:42047:1,2005-10-14T03:09:00Z,27.8966,-93.5973,1017.15,11111222 
TABS,ioos:station:wmo:42047:1,2005-10-14T03:39:00Z,27.8966,-93.5973,1017.34,11111222 
TABS,ioos:station:wmo:42047:1,2005-10-14T04:09:00Z,27.8966,-93.5973,1017.34,11111222 
TABS,ioos:station:wmo:42047:1,2005-10-14T04:39:00Z,27.8966,-93.5973,1017.47,11111222 
TABS,ioos:station:wmo:42047:1,2005-10-14T05:09:00Z,27.8966,-93.5973,1017.41,11111222 
TABS,ioos:station:wmo:42047:1,2005-10-14T05:39:00Z,27.8966,-93.5973,1017.28,11111222 
TABS,ioos:station:wmo:42047:1,2005-10-14T06:09:00Z,27.8966,-93.5973,1017.15,11111222 
TABS,ioos:station:wmo:42047:1,2005-10-14T06:39:00Z,27.8966,-93.5973,1017.22,11111222 
TABS,ioos:station:wmo:42047:1,2005-10-14T07:09:00Z,27.8966,-93.5973,1017.22,11111222 
TABS,ioos:station:wmo:42047:1,2005-10-14T07:39:00Z,27.8966,-93.5973,1016.96,11111222 
TABS,ioos:station:wmo:42047:1,2005-10-14T08:09:00Z,27.8966,-93.5973,1016.84,11111222 
TABS,ioos:station:wmo:42047:1,2005-10-14T08:39:00Z,27.8966,-93.5973,1016.77,11111222 
TABS,ioos:station:wmo:42047:1,2005-10-14T09:09:00Z,27.8966,-93.5973,1016.77,11111222 
TABS,ioos:station:wmo:42047:1,2005-10-14T09:39:00Z,27.8966,-93.5973,1016.77,11111222 
TABS,ioos:station:wmo:42047:1,2005-10-14T10:09:00Z,27.8966,-93.5973,1016.96,11111222 
TABS,ioos:station:wmo:42047:1,2005-10-14T10:39:00Z,27.8966,-93.5973,1017.09,11111222 
TABS,ioos:station:wmo:42047:1,2005-10-14T11:09:00Z,27.8966,-93.5973,1017.28,11111222 
TABS,ioos:station:wmo:42047:1,2005-10-14T11:39:00Z,27.8966,-93.5973,1017.53,11111222 
TABS,ioos:station:wmo:42047:1,2005-10-14T12:09:00Z,27.8966,-93.5973,1017.92,11111222 
TABS,ioos:station:wmo:42047:1,2005-10-14T12:39:00Z,27.8966,-93.5973,1018.3,11111222 
TABS,ioos:station:wmo:42047:1,2005-10-14T13:09:00Z,27.8966,-93.5973,1018.61,11111222 
TABS,ioos:station:wmo:42047:1,2005-10-14T13:39:00Z,27.8966,-93.5973,1018.99,11111222 
TABS,ioos:station:wmo:42047:1,2005-10-14T14:09:00Z,27.8966,-93.5973,1019.38,11111222 
TABS,ioos:station:wmo:42047:1,2005-10-14T14:39:00Z,27.8966,-93.5973,1019.57,11111222 
TABS,ioos:station:wmo:42047:1,2005-10-14T15:09:00Z,27.8966,-93.5973,1019.76,11111222 
TABS,ioos:station:wmo:42047:1,2005-10-14T15:39:00Z,27.8966,-93.5973,1019.82,11111222 
TABS,ioos:station:wmo:42047:1,2005-10-14T16:09:00Z,27.8966,-93.5973,1019.82,11111222 
TABS,ioos:station:wmo:42047:1,2005-10-14T16:39:00Z,27.8966,-93.5973,1019.69,11111222 
TABS,ioos:station:wmo:42047:1,2005-10-14T17:09:00Z,27.8966,-93.5973,1019.69,11111222 
TABS,ioos:station:wmo:42047:1,2005-10-14T17:39:00Z,27.8966,-93.5973,1019.44,11111222 
TABS,ioos:station:wmo:42047:1,2005-10-14T18:09:00Z,27.8966,-93.5973,1019.25,11111222 
TABS,ioos:station:wmo:42047:1,2005-10-14T18:39:00Z,27.8966,-93.5973,1018.87,11111222 
TABS,ioos:station:wmo:42047:1,2005-10-14T19:09:00Z,27.8966,-93.5973,1018.55,11111222 
TABS,ioos:station:wmo:42047:1,2005-10-14T19:39:00Z,27.8966,-93.5973,1018.23,11111222 
TABS,ioos:station:wmo:42047:1,2005-10-14T20:09:00Z,27.8966,-93.5973,1018.04,11111222 
TABS,ioos:station:wmo:42047:1,2005-10-14T20:39:00Z,27.8966,-93.5973,1017.92,11111222 
TABS,ioos:station:wmo:42047:1,2005-10-14T21:09:00Z,27.8966,-93.5973,1017.85,11111222 
TABS,ioos:station:wmo:42047:1,2005-10-14T21:39:00Z,27.8966,-93.5973,1017.85,11111222 
TABS,ioos:station:wmo:42047:1,2005-10-14T22:09:00Z,27.8966,-93.5973,1017.85,11111222 
TABS,ioos:station:wmo:42047:1,2005-10-14T22:39:00Z,27.8966,-93.5973,1017.85,11111222 
TABS,ioos:station:wmo:42047:1,2005-10-14T23:09:00Z,27.8966,-93.5973,1017.92,11111222 
TABS,ioos:station:wmo:42047:1,2005-10-14T23:39:00Z,27.8966,-93.5973,1018.11,11111222 
TABS,ioos:station:wmo:42047:1,2005-10-15T00:09:00Z,27.8966,-93.5973,1018.23,11111222 
TABS,ioos:station:wmo:42047:1,2005-10-15T00:39:00Z,27.8966,-93.5973,1018.49,11111222 
TABS,ioos:station:wmo:42047:1,2005-10-15T01:09:00Z,27.8966,-93.5973,1018.55,11111222 
TABS,ioos:station:wmo:42047:1,2005-10-15T01:39:00Z,27.8966,-93.5973,1018.68,11111222 
TABS,ioos:station:wmo:42047:1,2005-10-15T02:09:00Z,27.8966,-93.5973,1018.87,11111222 
TABS,ioos:station:wmo:42047:1,2005-10-15T02:39:00Z,27.8966,-93.5973,1018.99,11111222 
TABS,ioos:station:wmo:42047:1,2005-10-15T03:09:00Z,27.8966,-93.5973,1019.06,11111222 
TABS,ioos:station:wmo:42047:1,2005-10-15T03:39:00Z,27.8966,-93.5973,1019.06,11111222 
TABS,ioos:station:wmo:42047:1,2005-10-15T04:09:00Z,27.8966,-93.5973,1018.93,11111222 
TABS,ioos:station:wmo:42047:1,2005-10-15T04:39:00Z,27.8966,-93.5973,1018.87,11111222 
TABS,ioos:station:wmo:42047:1,2005-10-15T05:09:00Z,27.8966,-93.5973,1018.61,11111222 
TABS,ioos:station:wmo:42047:1,2005-10-15T05:39:00Z,27.8966,-93.5973,1018.42,11111222 
TABS,ioos:station:wmo:42047:1,2005-10-15T06:09:00Z,27.8966,-93.5973,1018.3,11111222 
TABS,ioos:station:wmo:42047:1,2005-10-15T06:39:00Z,27.8966,-93.5973,1018.11,11111222 
TABS,ioos:station:wmo:42047:1,2005-10-15T07:09:00Z,27.8966,-93.5973,1017.98,11111222 
TABS,ioos:station:wmo:42047:1,2005-10-15T07:39:00Z,27.8966,-93.5973,1017.72,11111222 
TABS,ioos:station:wmo:42047:1,2005-10-15T08:09:00Z,27.8966,-93.5973,1017.53,11111222 
TABS,ioos:station:wmo:42047:1,2005-10-15T08:39:00Z,27.8966,-93.5973,1017.34,11111222 
TABS,ioos:station:wmo:42047:1,2005-10-15T09:09:00Z,27.8966,-93.5973,1017.28,11111222 
TABS,ioos:station:wmo:42047:1,2005-10-15T09:39:00Z,27.8966,-93.5973,1017.34,11111222 
TABS,ioos:station:wmo:42047:1,2005-10-15T10:09:00Z,27.8966,-93.5973,1017.53,11111222 
TABS,ioos:station:wmo:42047:1,2005-10-15T10:39:00Z,27.8966,-93.5973,1017.72,11111222 
TABS,ioos:station:wmo:42047:1,2005-10-15T11:09:00Z,27.8966,-93.5973,1017.85,11111222 
TABS,ioos:station:wmo:42047:1,2005-10-15T11:39:00Z,27.8966,-93.5973,1017.92,11111222 
TABS,ioos:station:wmo:42047:1,2005-10-15T12:09:00Z,27.8966,-93.5973,1018.04,11111222 
TABS,ioos:station:wmo:42047:1,2005-10-15T12:39:00Z,27.8966,-93.5973,1018.17,11111222 
TABS,ioos:station:wmo:42047:1,2005-10-15T13:09:00Z,27.8966,-93.5973,1018.3,11111222 
TABS,ioos:station:wmo:42047:1,2005-10-15T13:39:00Z,27.8966,-93.5973,1018.55,11111222 
TABS,ioos:station:wmo:42047:1,2005-10-15T14:09:00Z,27.8966,-93.5973,1018.74,11111222 
TABS,ioos:station:wmo:42047:1,2005-10-15T14:39:00Z,27.8966,-93.5973,1019.06,11111222 
TABS,ioos:station:wmo:42047:1,2005-10-15T15:09:00Z,27.8966,-93.5973,1019.06,11111222 
TABS,ioos:station:wmo:42047:1,2005-10-15T15:39:00Z,27.8966,-93.5973,1019.06,11111222 
TABS,ioos:station:wmo:42047:1,2005-10-15T16:09:00Z,27.8966,-93.5973,1018.93,11111222 
TABS,ioos:station:wmo:42047:1,2005-10-15T16:39:00Z,27.8966,-93.5973,1018.74,11111222 
TABS,ioos:station:wmo:42047:1,2005-10-15T17:09:00Z,27.8966,-93.5973,1018.61,11111222 
TABS,ioos:station:wmo:42047:1,2005-10-15T17:39:00Z,27.8966,-93.5973,1018.3,11111222 
TABS,ioos:station:wmo:42047:1,2005-10-15T18:09:00Z,27.8966,-93.5973,1017.92,11111222 
TABS,ioos:station:wmo:42047:1,2005-10-15T18:39:00Z,27.8966,-93.5973,1017.47,11111222 
TABS,ioos:station:wmo:42047:1,2005-10-15T19:09:00Z,27.8966,-93.5973,1016.96,11111222 
TABS,ioos:station:wmo:42047:1,2005-10-15T19:39:00Z,27.8966,-93.5973,1016.52,11111222 
TABS,ioos:station:wmo:42047:1,2005-10-15T20:09:00Z,27.8966,-93.5973,1016.46,11111222 
TABS,ioos:station:wmo:42047:1,2005-10-15T20:39:00Z,27.8966,-93.5973,1016.33,11111222 
TABS,ioos:station:wmo:42047:1,2005-10-15T21:09:00Z,27.8966,-93.5973,1016.14,11111222 
TABS,ioos:station:wmo:42047:1,2005-10-15T21:39:00Z,27.8966,-93.5973,1016.01,11111222 
TABS,ioos:station:wmo:42047:1,2005-10-15T22:09:00Z,27.8966,-93.5973,1015.88,11111222 
TABS,ioos:station:wmo:42047:1,2005-10-15T22:39:00Z,27.8966,-93.5973,1015.88,11111222 
TABS,ioos:station:wmo:42047:1,2005-10-15T23:09:00Z,27.8966,-93.5973,1015.95,11111222 
TABS,ioos:station:wmo:42047:1,2005-10-15T23:39:00Z,27.8966,-93.5973,1016.01,11111222 
TABS,ioos:station:wmo:42047:1,2005-10-16T00:09:00Z,27.8966,-93.5973,1016.14,11111222 
TABS,ioos:station:wmo:42047:1,2005-10-16T00:39:00Z,27.8966,-93.5973,1016.26,11111222 
TABS,ioos:station:wmo:42047:1,2005-10-16T01:09:00Z,27.8966,-93.5973,1016.46,11111222 
TABS,ioos:station:wmo:42047:1,2005-10-16T01:39:00Z,27.8966,-93.5973,1016.58,11111222 
TABS,ioos:station:wmo:42047:1,2005-10-16T02:09:00Z,27.8966,-93.5973,1016.58,11111222 
TABS,ioos:station:wmo:42047:1,2005-10-16T02:39:00Z,27.8966,-93.5973,1016.65,11111222 
TABS,ioos:station:wmo:42047:1,2005-10-16T03:09:00Z,27.8966,-93.5973,1016.71,11111222 
TABS,ioos:station:wmo:42047:1,2005-10-16T03:39:00Z,27.8966,-93.5973,1016.58,11111222 
TABS,ioos:station:wmo:42047:1,2005-10-16T04:09:00Z,27.8966,-93.5973,1016.52,11111222 
TABS,ioos:station:wmo:42047:1,2005-10-16T04:39:00Z,27.8966,-93.5973,1016.39,11111222 
TABS,ioos:station:wmo:42047:1,2005-10-16T05:09:00Z,27.8966,-93.5973,1016.14,11111222 
TABS,ioos:station:wmo:42047:1,2005-10-16T05:39:00Z,27.8966,-93.5973,1015.82,11111222 
TABS,ioos:station:wmo:42047:1,2005-10-16T06:09:00Z,27.8966,-93.5973,1015.76,11111222 
TABS,ioos:station:wmo:42047:1,2005-10-16T06:39:00Z,27.8966,-93.5973,1015.82,11111222 
TABS,ioos:station:wmo:42047:1,2005-10-16T07:09:00Z,27.8966,-93.5973,1015.82,11111222 
TABS,ioos:station:wmo:42047:1,2005-10-16T07:39:00Z,27.8966,-93.5973,1015.95,11111222 
TABS,ioos:station:wmo:42047:1,2005-10-16T08:09:00Z,27.8966,-93.5973,1015.95,11111222 
TABS,ioos:station:wmo:42047:1,2005-10-16T08:39:00Z,27.8966,-93.5973,1015.88,11111222 
TABS,ioos:station:wmo:42047:1,2005-10-16T09:09:00Z,27.8966,-93.5973,1016.01,11111222 
TABS,ioos:station:wmo:42047:1,2005-10-16T09:39:00Z,27.8966,-93.5973,1015.95,11111222 